This is the latest recevied weather packets stored in our database for station/object KD4EG. If no packets are shown the sender has not sent any weather packets the latest 10 day(s).
| Time | Temp. | Humidity | Pressure | Rain* | Wind** | Luminosity | Snow |
|---|---|---|---|---|---|---|---|
| 1788614697 | 26.67° C | 75% | 1015.8 hPa | 0 mm | - | 297 W/m² | - |
| 1788614391 | 26.67° C | 75% | 1015.9 hPa | 0 mm | - | 222 W/m² | - |
| 1788614087 | 26.67° C | 75% | 1015.6 hPa | 0 mm | - | 168 W/m² | - |
| 1788613782 | 26.67° C | 75% | 1015.6 hPa | 0 mm | - | 186 W/m² | - |
| 1788613482 | 26.67° C | 76% | 1015.8 hPa | 0 mm | - | 216 W/m² | - |
| 1788613181 | 26.67° C | 76% | 1015.5 hPa | 0 mm | - | 222 W/m² | - |
| 1788612876 | 26.67° C | 76% | 1015.7 hPa | 0 mm | - | 251 W/m² | - |
| 1788612572 | 26.11° C | 78% | 1015.9 hPa | 0 mm | - | 232 W/m² | - |
| 1788612269 | 25.56° C | 79% | 1015.8 hPa | 0 mm | - | 212 W/m² | - |
| 1788611968 | 25.56° C | 79% | 1015.5 hPa | 0 mm | - | 112 W/m² | - |
| 1788611665 | 25.56° C | 79% | 1015.7 hPa | 0 mm | - | 177 W/m² | - |
| 1788611360 | 25° C | 79% | 1015.6 hPa | 0 mm | - | 180 W/m² | - |
| 1788611060 | 25° C | 80% | 1015.7 hPa | 0 mm | - | 161 W/m² | - |
| 1788610755 | 25° C | 81% | 1015.6 hPa | 0 mm | - | 144 W/m² | - |
| 1788610451 | 24.44° C | 82% | 1015.8 hPa | 0 mm | - | 109 W/m² | - |
| 1788610149 | 24.44° C | 82% | 1015.6 hPa | 0 mm | - | 60 W/m² | - |
| 1788609844 | 23.89° C | 83% | 1015.6 hPa | 0 mm | - | 44 W/m² | - |
| 1788609539 | 23.89° C | 83% | 1015.7 hPa | 0 mm | - | 39 W/m² | - |
| 1788609238 | 23.89° C | 84% | 1015.6 hPa | 0 mm | - | 33 W/m² | - |
| 1788608933 | 23.89° C | 84% | 1015.6 hPa | 0 mm | - | 32 W/m² | - |
| 1788608633 | 23.89° C | 84% | 1015.5 hPa | 0 mm | - | 30 W/m² | - |
| 1788608332 | 23.89° C | 84% | 1015.8 hPa | 0 mm | - | 28 W/m² | - |
| 1788608028 | 23.89° C | 85% | 1015.5 hPa | 0 mm | - | 25 W/m² | - |
| 1788607723 | 23.89° C | 84% | 1015.3 hPa | 0 mm | - | 22 W/m² | - |
| 1788607417 | 23.89° C | 84% | 1015.4 hPa | 0 mm | - | 19 W/m² | - |
* Rain latest hour (hover to see other rain measurements)
** Current wind speed in m/s (hover to see current wind gust speed)